Weather History for PAWD - October, 2012

Change the Weather History Date:

Friday, October 19, 2012

  Actual Average Record
Temperature  
Mean Temperature 32 °F -  
Max Temperature 37 °F 42 °F 55 °F (1957)
Min Temperature 28 °F 33 °F 15 °F (1977)
Degree Days  
Heating Degree Days 32    
Moisture  
Dew Point 18 °F    
Average Humidity 54    
Maximum Humidity 67    
Minimum Humidity 41    
Precipitation  
Precipitation 0.00 in - - ()
Sea Level Pressure  
Sea Level Pressure 29.90 in    
Wind  
Wind Speed 14 mph (North)    
Max Wind Speed 18 mph    
Max Gust Speed 31 mph    
Visibility 10 miles    
Events      
Averages and records for this station are not official NWS values.
T = Trace of Precipitation, MM = Missing Value Source: NWS Daily Summary

Daily Weather History Graph

Daily Weather History Graph

Search for Another Location

Airport or City:

Trip Planner

Search our weather history database for the weather conditions in past years. The results will help you decide how hot, cold, wet, or windy it might be!

Date:

Astronomy

Oct. 19, 2012 Rise Set
Actual Time 8:49 AM AKDT 6:34 PM AKDT
Civil Twilight 8:06 AM AKDT 7:17 PM AKDT
Nautical Twilight 7:17 AM AKDT 8:06 PM AKDT
Astronomical Twilight 6:29 AM AKDT 8:54 PM AKDT
Moon 2:40 PM AKDT (10/19) 9:27 PM AKDT (10/19)
Length of Visible Light 11h 11m
Length of Day
9h 45m
Waxing Crescent, 25% of the Moon is Illuminated
Oct 19
Waxing Crescent
Oct 21
First Quarter
Oct 29
Full
Nov 6
Last Quarter
Nov 13
New

Hourly Weather History & Observations

Time (AKDT) Temp. Windchill Dew Point Humidity Pressure Visibility Wind Dir Wind Speed Gust Speed Precip Events Conditions
12:53 AM 32.0 °F 22.1 °F 17.1 °F 54% 29.79 in 10.0 mi NNE 13.8 mph 23.0 mph N/A   Clear
1:53 AM 30.9 °F 20.7 °F 18.0 °F 59% 29.80 in 10.0 mi NNE 13.8 mph 18.4 mph N/A   Clear
2:53 AM 30.0 °F 20.0 °F 18.0 °F 61% 29.81 in 10.0 mi North 12.7 mph - N/A   Clear
3:53 AM 28.9 °F 18.2 °F 19.0 °F 67% 29.81 in 10.0 mi NNE 13.8 mph 20.7 mph N/A   Clear
4:53 AM 30.0 °F 19.1 °F 19.0 °F 64% 29.82 in 10.0 mi NNE 15.0 mph 25.3 mph N/A   Clear
5:53 AM 30.0 °F 19.1 °F 19.0 °F 64% 29.83 in 10.0 mi NNE 15.0 mph 23.0 mph N/A   Clear
6:53 AM 30.0 °F 19.5 °F 18.0 °F 61% 29.84 in 10.0 mi NNE 13.8 mph 25.3 mph N/A   Clear
7:53 AM 28.9 °F 19.2 °F 19.0 °F 67% 29.86 in 10.0 mi NNE 11.5 mph 18.4 mph N/A   Clear
8:53 AM 30.0 °F 21.1 °F 17.1 °F 59% 29.87 in 10.0 mi NNE 10.4 mph 23.0 mph N/A   Clear
9:53 AM 28.9 °F 18.2 °F 18.0 °F 64% 29.89 in 10.0 mi NNE 13.8 mph - N/A   Clear
10:53 AM 33.1 °F 23.9 °F 17.1 °F 52% 29.91 in 10.0 mi NE 12.7 mph 23.0 mph N/A   Clear
11:53 AM 35.1 °F 26.4 °F 17.1 °F 48% 29.91 in 10.0 mi North 12.7 mph 20.7 mph N/A   Clear
12:53 PM 36.0 °F 25.6 °F 16.0 °F 44% 29.91 in 10.0 mi North 18.4 mph 31.1 mph N/A   Clear
1:53 PM 37.0 °F 27.7 °F 16.0 °F 42% 29.92 in 10.0 mi North 16.1 mph 26.5 mph N/A   Clear
2:53 PM 37.9 °F 29.6 °F 16.0 °F 41% 29.92 in 10.0 mi North 13.8 mph 23.0 mph N/A   Clear
3:53 PM 37.0 °F 27.7 °F 17.1 °F 44% 29.92 in 10.0 mi NNW 16.1 mph 26.5 mph N/A   Clear
4:53 PM 36.0 °F 26.0 °F 17.1 °F 46% 29.94 in 10.0 mi NW 17.3 mph 28.8 mph N/A   Clear
5:53 PM 36.0 °F 26.3 °F 16.0 °F 44% 29.96 in 10.0 mi NNW 16.1 mph 27.6 mph N/A   Clear
6:53 PM 35.1 °F 26.4 °F 16.0 °F 46% 29.97 in 10.0 mi North 12.7 mph 24.2 mph N/A   Clear
7:53 PM 34.0 °F 26.0 °F 18.0 °F 52% 29.98 in 10.0 mi NNE 10.4 mph 20.7 mph N/A   Clear
8:53 PM 34.0 °F 24.2 °F 18.0 °F 52% 29.99 in 10.0 mi NNE 15.0 mph 20.7 mph N/A   Clear
9:53 PM 33.1 °F 23.0 °F 18.0 °F 54% 30.00 in 10.0 mi NNE 15.0 mph 21.9 mph N/A   Clear
10:53 PM 32.0 °F 22.1 °F 18.0 °F 56% 30.02 in 10.0 mi North 13.8 mph 20.7 mph N/A   Clear
11:53 PM 33.1 °F 23.0 °F 18.0 °F 54% 30.03 in 10.0 mi NNE 15.0 mph 23.0 mph N/A   Clear